[[{"header":{"parameterUnit":"m.s-1","parameterCategory":1,"la1":30.2991,"la2":30.254,"lo1":-89.0895,"lo2":-89.0444,"dy":0.0017,"dx":0.0017,"nx":28,"ny":28,"refTime":"2024-12-25T09:00:00:Z","depth":0,"parameterNumber":2,"parameterNumberName":"U-component_of_WINDS"},"data":[0,0,0,0,0,0,0,0,0,0,0,0,0,0,0,0,0,0,0,0,0,0,0,0,0,0,0,0,0,0,0,0,0,0,0,0,0,0,0,0,0,0,0,0,0,0,0,0,0,0,0,0,0,0,0,0,0,0,-3.0528,-3.0528,0,-3.0584,-3.0585,-3.0585,-3.0501,-3.0498,-3.0495,-3.0492,-3.0549,-3.0553,-3.0557,0,0,0,0,0,0,0,0,0,0,0,0,0,-3.0347,-3.0351,-3.0528,-3.0528,-3.0529,-3.0584,-3.0585,-3.0586,-3.0501,-3.0498,-3.0494,-3.0491,-3.0547,-3.0552,-3.0557,0,0,0,0,0,0,0,0,0,0,0,0,0,-3.0417,-3.0352,-3.0528,-3.0494,-3.0491,-3.0584,-3.0585,-3.0586,-3.0502,-3.0497,-3.0493,-3.0489,-3.0546,-3.0552,-3.0558,-3.0686,0,0,-3.0578,-3.058,0,0,0,0,0,0,0,0,-3.0413,-3.0424,-3.0498,-3.0496,-3.0494,-3.0531,-3.0542,-3.0619,-3.0503,-3.0498,-3.0492,-3.0487,-3.0546,-3.0552,-3.0573,-3.0689,-3.0691,-3.0578,-3.0582,-3.0585,-3.0587,0,0,0,0,0,0,0,-3.0408,-3.0421,-3.055,-3.0499,-3.0497,-3.0476,-3.0481,-3.0556,-3.0546,-3.0498,-3.0492,-3.05,-3.0544,-3.0567,-3.0573,-3.0692,-3.0578,-3.0584,-3.0588,-3.059,-3.0919,-3.0924,0,0,0,0,0,0,-3.0408,-3.0417,-3.0548,-3.0552,-3.0442,-3.0483,-3.0488,-3.0523,-3.0545,-3.0544,-3.0504,-3.0496,-3.0558,-3.0566,-3.0575,-3.0728,-3.0585,-3.0591,-3.0594,-3.0914,-3.092,-3.0926,0,0,0,0,0,0,-3.0404,-3.042,-3.0546,-3.0483,-3.0497,-3.049,-3.0531,-3.0527,-3.0549,-3.0549,-3.0547,-3.0528,-3.0555,-3.0566,-3.066,-3.0729,-3.0594,-3.06,-3.0909,-3.0916,-3.0923,-3.1035,0,0,0,0,0,0,-3.0399,-3.0419,-3.0468,-3.0485,-3.0501,-3.063,-3.0535,-3.0531,-3.0561,-3.0551,-3.0572,-3.0571,-3.0552,-3.0651,-3.0666,-3.0735,-3.0605,-3.0902,-3.0912,-3.0921,-3.1025,-3.1046,-3.1063,0,0,0,0,0,-3.0393,-3.0496,-3.0471,-3.0487,-3.0561,-3.0634,-3.0644,-3.062,-3.0566,-3.0615,-3.0616,-3.0571,-3.0719,-3.0661,-3.0678,-3.075,-3.0898,-3.0909,-3.092,-3.1017,-3.1042,-3.1062,0,0,0,0,0,0,-3.0487,-3.0498,-3.047,-3.0581,-3.0608,-3.062,-3.0681,-3.0646,-3.0688,-3.0677,-3.0645,-3.0651,-3.0752,-3.076,-3.0695,-3.0876,-3.08,-3.0814,-3.0868,-3.0891,-3.0909,-3.0906,-3.061,0,0,0,0,0,-3.0521,-3.0579,-3.0585,-3.0683,-3.0698,-3.0688,-3.0718,-3.0698,-3.0724,-3.0734,-3.0741,-3.0768,-3.0821,-3.0856,-3.0904,-3.1026,-3.103,-3.1084,-3.1103,-3.1118,-3.1132,-3.1199,-3.1223,-3.0962,-3.0962,-3.0962,0,0,-3.0591,-3.0604,-3.0643,-3.0703,-3.0721,-3.0782,-3.0697,-3.0765,-3.0811,-3.0744,-3.0834,-3.0841,-3.0868,-3.0978,-3.1026,-3.0987,-3.1205,-3.1132,-3.1144,-3.115,-3.1213,-3.1238,-3.126,-3.0969,-3.0968,-3.0967,0,0,-3.0751,-3.0766,-3.0851,-3.0871,-3.09,-3.0892,-3.0913,-3.0931,-3.0933,-3.1023,-3.0975,-3.1028,-3.1119,-3.1142,-3.1165,-3.1336,-3.1297,-3.1353,-3.1451,-3.1517,-3.1538,-3.1556,-3.1619,-3.1642,-3.1366,-3.1366,-3.1367,0,-3.0834,-3.0925,-3.0898,-3.0971,-3.0999,-3.0943,-3.1029,-3.1049,-3.1093,-3.1114,-3.107,-3.1185,-3.1199,-3.1314,-3.1356,-3.1376,-3.14,-3.135,-3.1537,-3.1555,-3.1571,-3.1631,-3.1655,-3.1373,-3.1372,-3.1372,-3.1371,0,-3.1028,-3.1092,-3.1157,-3.1201,-3.1237,-3.1316,-3.1301,-3.1341,-3.1318,-3.1315,-3.1408,-3.1424,-3.1476,-3.1501,-3.1478,-3.1614,-3.1589,-3.1542,-3.1464,-3.1604,-3.1659,-3.1682,-3.1383,-3.138,-3.1378,-3.1377,0,0,-3.1248,-3.1278,-3.1302,-3.1323,-3.1351,-3.14,-3.1477,-3.1529,-3.1564,-3.1596,-3.1661,-3.174,-3.1697,-3.1724,-3.1703,-3.1761,-3.1899,-3.1707,-3.1707,-3.1744,-3.2051,-3.2088,-3.2115,-3.1872,-3.1877,-3.188,-3.2049,0,-3.1409,-3.1542,-3.1521,-3.165,-3.171,-3.1658,-3.1726,-3.1751,-3.1751,-3.1802,-3.1801,-3.186,-3.1797,-3.1814,-3.1868,-3.187,-3.196,-3.1858,-3.1933,-3.1937,-3.193,-3.2143,-3.2182,-3.2341,-3.2071,-3.2074,-3.2077,0,-3.1614,-3.1655,-3.1791,-3.1813,-3.1837,-3.1898,-3.1945,-3.1994,-3.2022,-3.2018,-3.205,-3.2019,-3.2097,-3.2018,-3.2125,-3.2056,-3.2086,-3.2092,-3.2097,-3.2104,-3.2016,-3.2158,-3.2391,-3.2416,-3.2111,-3.2108,-3.2105,0,-3.1763,-3.1853,-3.1946,-3.1965,-3.1992,-3.2036,-3.205,-3.2073,-3.2107,-3.2147,-3.2169,-3.2218,-3.2245,-3.2284,-3.2268,-3.2211,-3.238,-3.2298,-3.238,-3.238,-3.2418,-3.2416,-3.2661,-3.2435,-3.2435,-3.2434,-3.2434,0,-3.1946,-3.2032,-3.2014,-3.2072,-3.2167,-3.2142,-3.2237,-3.2243,-3.2266,-3.2324,-3.2281,-3.2337,-3.2312,-3.2367,-3.2355,-3.2447,-3.2459,-3.2459,-3.2455,-3.2464,-3.2464,-3.2484,-3.2473,-3.244,-3.2439,-3.2438,-3.2437,0,-3.2129,-3.212,-3.2219,-3.2238,-3.2244,-3.2314,-3.2329,-3.2384,-3.2381,-3.2456,-3.2472,-3.2468,-3.253,-3.2518,-3.2586,-3.2578,-3.2695,-3.2676,-3.2686,-3.2682,-3.2765,-3.2758,-3.3032,-3.3068,-3.2817,-3.282,-3.2822,0,-3.2247,-3.2312,-3.2338,-3.2375,-3.2392,-3.2451,-3.2485,-3.2463,-3.2501,-3.2539,-3.259,-3.2648,-3.2694,-3.2796,-3.28,-3.2852,-3.2835,-3.2928,-3.2843,-3.2851,-3.2839,-3.2836,-3.2844,-3.2945,-3.2948,-3.295,-3.2952,0,-3.2458,-3.2451,-3.2502,-3.2553,-3.2596,-3.2634,-3.2668,-3.2701,-3.2682,-3.2727,-3.279,-3.2826,-3.2897,-3.2956,-3.3006,-3.3019,-3.2984,-3.2979,-3.3001,-3.3011,-3.3015,-3.3016,-3.2734,-3.2973,-3.2971,-3.2969,-3.2968,-3.2967,-3.2614,-3.267,-3.2698,-3.2757,-3.2781,-3.2815,-3.2868,-3.2872,-3.2925,-3.2982,-3.2966,-3.3039,-3.3067,-3.313,-3.3149,-3.3206,-3.3172,-3.3203,-3.3212,-3.322,-3.3231,-3.3005,-3.3215,-3.3214,-3.3214,-3.3213,-3.3213,0,-3.2824,-3.284,-3.2895,-3.2945,-3.2992,-3.2955,-3.2992,-3.3034,-3.3099,-3.3128,-3.3175,-3.3249,-3.3307,-3.3316,-3.3371,-3.3416,-3.3401,-3.3431,-3.3428,-3.3432,-3.3258,-3.3234,-3.3442,-3.3442,-3.3442,-3.3442,-3.3442,-3.3442,-3.2939,-3.3034,-3.3031,-3.3137,-3.3152,-3.3224,-3.3249,-3.328,-3.3304,-3.3389,-3.3438,-3.3443,-3.3465,-3.3522,-3.3574,-3.3575,-3.3598,-3.3635,-3.363,-3.3467,-3.3444,-3.3423,-3.34,-3.364,-3.364,-3.38,-3.3801,-3.3803]},{"header":{"parameterUnit":"m.s-1","parameterCategory":1,"la1":30.2991,"la2":30.254,"lo1":-89.0895,"lo2":-89.0444,"dy":0.0017,"dx":0.0017,"nx":28,"ny":28,"refTime":"2024-12-25T09:00:00:Z","depth":0,"parameterNumber":3,"parameterNumberName":"V-component_of_WINDS"},"data":[0,0,0,0,0,0,0,0,0,0,0,0,0,0,0,0,0,0,0,0,0,0,0,0,0,0,0,0,0,0,0,0,0,0,0,0,0,0,0,0,0,0,0,0,0,0,0,0,0,0,0,0,0,0,0,0,0,0,-0.7904,-0.7904,0,-0.792,-0.792,-0.792,-0.7933,-0.7934,-0.7934,-0.7934,-0.795,-0.795,-0.795,0,0,0,0,0,0,0,0,0,0,0,0,0,-0.7882,-0.7882,-0.7903,-0.7904,-0.7904,-0.792,-0.792,-0.792,-0.7933,-0.7934,-0.7934,-0.7934,-0.7949,-0.795,-0.795,0,0,0,0,0,0,0,0,0,0,0,0,0,-0.7894,-0.7882,-0.7903,-0.7912,-0.7913,-0.792,-0.792,-0.792,-0.7933,-0.7934,-0.7934,-0.7934,-0.7949,-0.795,-0.795,-0.7949,0,0,-0.7952,-0.7952,0,0,0,0,0,0,0,0,-0.7893,-0.7895,-0.7911,-0.7912,-0.7913,-0.7925,-0.7918,-0.793,-0.7933,-0.7926,-0.7934,-0.7934,-0.7941,-0.7942,-0.7945,-0.795,-0.795,-0.7952,-0.7952,-0.7952,-0.7952,0,0,0,0,0,0,0,-0.7892,-0.7894,-0.791,-0.7911,-0.7912,-0.7915,-0.7917,-0.792,-0.7932,-0.7926,-0.7927,-0.7929,-0.7942,-0.7944,-0.7945,-0.795,-0.7952,-0.7952,-0.7952,-0.7952,-0.7954,-0.7953,0,0,0,0,0,0,-0.789,-0.7893,-0.7909,-0.791,-0.7903,-0.7915,-0.7917,-0.7921,-0.7932,-0.7934,-0.7929,-0.793,-0.7944,-0.7945,-0.7946,-0.7944,-0.7952,-0.7952,-0.7953,-0.7954,-0.7954,-0.7953,0,0,0,0,0,0,-0.789,-0.7892,-0.7909,-0.7902,-0.7905,-0.7915,-0.7919,-0.7921,-0.7924,-0.7934,-0.7936,-0.793,-0.7944,-0.7945,-0.7948,-0.7945,-0.7953,-0.7953,-0.7954,-0.7954,-0.7953,-0.7942,0,0,0,0,0,0,-0.7889,-0.7892,-0.7892,-0.7902,-0.7905,-0.7911,-0.7919,-0.7921,-0.7925,-0.7926,-0.7935,-0.7937,-0.7944,-0.7947,-0.7948,-0.7946,-0.7953,-0.7954,-0.7954,-0.7954,-0.7942,-0.7941,-0.794,0,0,0,0,0,-0.7888,-0.7888,-0.7892,-0.7893,-0.7905,-0.7911,-0.7912,-0.7921,-0.7924,-0.7924,-0.793,-0.7937,-0.7945,-0.7947,-0.7949,-0.7946,-0.7955,-0.7954,-0.7954,-0.7943,-0.7941,-0.794,0,0,0,0,0,0,-0.7877,-0.7889,-0.7894,-0.7897,-0.7902,-0.7913,-0.7913,-0.7919,-0.7924,-0.7925,-0.7934,-0.7936,-0.7938,-0.7942,-0.7944,-0.7945,-0.7951,-0.795,-0.7942,-0.7941,-0.7939,-0.7938,-0.7954,0,0,0,0,0,-0.7875,-0.7878,-0.7889,-0.789,-0.7893,-0.7902,-0.7905,-0.7911,-0.7917,-0.792,-0.7927,-0.7932,-0.7936,-0.7939,-0.7943,-0.7943,-0.7945,-0.7942,-0.7941,-0.794,-0.7939,-0.7939,-0.7938,-0.7952,-0.7952,-0.7952,0,0,-0.787,-0.7877,-0.7879,-0.7888,-0.7893,-0.7897,-0.7905,-0.7908,-0.791,-0.792,-0.7923,-0.7928,-0.7935,-0.7936,-0.7937,-0.794,-0.7936,-0.7939,-0.7938,-0.7938,-0.7938,-0.7937,-0.7936,-0.7951,-0.7951,-0.7951,0,0,-0.7863,-0.7869,-0.7871,-0.7876,-0.7884,-0.789,-0.789,-0.7899,-0.7903,-0.7906,-0.7913,-0.7916,-0.7922,-0.7927,-0.793,-0.7923,-0.7929,-0.7924,-0.7917,-0.7917,-0.7916,-0.7915,-0.7912,-0.7911,-0.7924,-0.7924,-0.7924,0,-0.7857,-0.7862,-0.7871,-0.7873,-0.7877,-0.7886,-0.7887,-0.7891,-0.79,-0.7902,-0.7905,-0.7913,-0.7918,-0.792,-0.7918,-0.792,-0.792,-0.7923,-0.7915,-0.7914,-0.7914,-0.7911,-0.791,-0.7923,-0.7923,-0.7923,-0.7923,0,-0.7853,-0.7857,-0.7857,-0.7865,-0.7868,-0.787,-0.7878,-0.788,-0.7885,-0.789,-0.7893,-0.7899,-0.7904,-0.7905,-0.791,-0.7907,-0.7909,-0.7914,-0.7919,-0.7912,-0.7909,-0.7908,-0.7922,-0.7922,-0.7923,-0.7923,0,0,-0.7841,-0.7853,-0.7853,-0.7856,-0.7864,-0.7867,-0.7868,-0.7874,-0.7875,-0.788,-0.7881,-0.7886,-0.789,-0.7893,-0.7899,-0.7898,-0.7892,-0.7903,-0.7903,-0.79,-0.7888,-0.7885,-0.7883,-0.7895,-0.7895,-0.7895,-0.7888,0,-0.7836,-0.7839,-0.7846,-0.7848,-0.7851,-0.7859,-0.786,-0.7865,-0.7869,-0.7872,-0.7877,-0.788,-0.7885,-0.7887,-0.7887,-0.7893,-0.7889,-0.7893,-0.7896,-0.7896,-0.7894,-0.7882,-0.7879,-0.7872,-0.7887,-0.7887,-0.7886,0,-0.783,-0.7835,-0.7836,-0.7843,-0.7845,-0.7846,-0.7851,-0.7853,-0.7858,-0.7862,-0.7865,-0.7871,-0.7872,-0.7877,-0.7878,-0.7881,-0.7882,-0.7885,-0.7885,-0.7885,-0.7891,-0.7883,-0.787,-0.7868,-0.7885,-0.7885,-0.7885,0,-0.7821,-0.7827,-0.7828,-0.7831,-0.784,-0.784,-0.7843,-0.7849,-0.7851,-0.7855,-0.7856,-0.786,-0.7862,-0.7865,-0.7871,-0.7874,-0.7871,-0.7877,-0.7874,-0.7874,-0.7873,-0.7873,-0.786,-0.7874,-0.7874,-0.7874,-0.7874,0,-0.7814,-0.7815,-0.7824,-0.7825,-0.7825,-0.7833,-0.7833,-0.7837,-0.7842,-0.7843,-0.785,-0.7851,-0.7859,-0.7861,-0.7866,-0.7866,-0.7867,-0.7869,-0.787,-0.7869,-0.7868,-0.787,-0.7871,-0.7874,-0.7874,-0.7874,-0.7874,0,-0.7804,-0.781,-0.7812,-0.782,-0.7822,-0.7822,-0.7828,-0.7829,-0.7833,-0.7835,-0.7836,-0.7843,-0.7845,-0.7851,-0.7855,-0.7858,-0.7857,-0.7859,-0.7855,-0.7856,-0.7852,-0.7853,-0.784,-0.7839,-0.7853,-0.7853,-0.7853,0,-0.7799,-0.78,-0.7807,-0.7809,-0.7812,-0.7814,-0.7816,-0.7823,-0.7825,-0.783,-0.783,-0.7833,-0.7835,-0.7838,-0.7844,-0.7846,-0.7849,-0.7844,-0.7849,-0.7847,-0.7849,-0.7849,-0.7848,-0.7843,-0.7843,-0.7843,-0.7843,0,-0.7791,-0.7793,-0.7796,-0.78,-0.7802,-0.7805,-0.7809,-0.7809,-0.7817,-0.7818,-0.7821,-0.7823,-0.7826,-0.7829,-0.7832,-0.7835,-0.784,-0.7841,-0.784,-0.7839,-0.7836,-0.7837,-0.7852,-0.7841,-0.7841,-0.7842,-0.7842,-0.7842,-0.7783,-0.7784,-0.7789,-0.7791,-0.7794,-0.7797,-0.7798,-0.7802,-0.7804,-0.7808,-0.7811,-0.7813,-0.7817,-0.7822,-0.7825,-0.7826,-0.7828,-0.7827,-0.7827,-0.7827,-0.7826,-0.7836,-0.7826,-0.7826,-0.7826,-0.7826,-0.7826,0,-0.7775,-0.7778,-0.778,-0.7785,-0.7786,-0.779,-0.7794,-0.7795,-0.7796,-0.78,-0.7802,-0.7804,-0.7806,-0.7811,-0.7813,-0.7813,-0.7815,-0.7813,-0.7814,-0.7814,-0.7824,-0.7824,-0.7812,-0.7812,-0.7812,-0.7812,-0.7812,-0.7812,-0.7771,-0.7771,-0.7774,-0.7776,-0.7779,-0.7781,-0.7783,-0.7785,-0.7788,-0.779,-0.7791,-0.7794,-0.7798,-0.78,-0.7802,-0.7803,-0.7804,-0.7801,-0.7803,-0.7812,-0.7814,-0.7815,-0.7815,-0.7801,-0.7801,-0.7794,-0.7794,-0.7794]}]]